Flag for Germany Weather past 2 weeks in Flensburg, Schleswig-Holstein, Germany

Now
46 °F

Partly sunny.


Feels Like: 41 °F
Forecast: 45 / 48 °F
Wind: 12 mph from West

Location: Soenderborg Lufthavn

Current Time: Dec 22, 2014 at 4:08:07 PM

Latest Report: Dec 22, 2014 at 2:50 PM


Visibility: N/A

Pressure: 29.59 "Hg

Humidity: 93%

Dew point: 45 °F

Location of FlensburgLocation

Historic Weather in Flensburg — Graph

°F

Flensburg temperature yesterday

Maximum temperature yesterday: 46 °F (at 4:50 PM)
Minimum temperature yesterday: 43 °F (at 9:50 AM)
Average temperature yesterday: 45 °F

Past Weeks' High & Low Weather Summary

 TemperatureHumidityPressure
High52 °F (Dec 18, 8:20 PM)100% (Dec 7, 7:51 PM)30.21 "Hg (Dec 7, 7:51 PM)
Low34 °F (Dec 9, 6:21 AM)71% (Dec 10, 1:36 PM)28.94 "Hg (Dec 12, 2:50 PM)
Average41 °F90%29.64 "Hg
* Reported Dec 7 2:20 PM — Dec 22 2:50 PM, Flensburg, Weather by CustomWeather, © 2014

Note: Actual official high and low records may vary slightly from our data, if they occured in-between our weather recording intervals... More about our weather records

Advertising

Flensburg weather history for previous 24 hours

 ConditionsComfort  
Time TempWeatherWind HumidityBarometerVisibility
2:50 PM
Dec 22
46 °FPartly sunny.12 mph93%29.59 "HgN/A
1:50 PM48 °FBroken clouds.12 mph87%29.59 "HgN/A
12:50 PM48 °FPartly sunny.12 mph94%29.56 "HgN/A
11:50 AM50 °FPartly sunny.12 mph88%29.56 "HgN/A
10:50 AM50 °FLight rain. Partly sunny.17 mph94%29.53 "Hg4 mi
9:50 AM50 °FLight rain. Partly sunny.22 mph94%29.53 "Hg4 mi
9:20 AM50 °FLight rain. Partly sunny.20 mph94%29.53 "Hg4 mi
8:50 AM50 °FLight rain. Partly sunny.20 mph94%29.53 "Hg4 mi
8:20 AM50 °FLight rain. Passing clouds.20 mph94%29.53 "Hg4 mi
7:50 AM50 °FRain. Passing clouds.20 mph94%29.56 "Hg2 mi
7:20 AM50 °FLight rain. Passing clouds.17 mph94%29.56 "Hg3 mi
6:51 AM50 °FLight rain. Passing clouds.17 mph94%29.56 "Hg3 mi
6:20 AM50 °FPassing clouds.20 mph94%29.59 "Hg4 mi
9:50 PM
Dec 21
46 °FLight rain. Partly cloudy.16 mph93%29.71 "Hg3 mi
7:50 PM46 °FLight rain. Passing clouds.16 mph87%29.77 "Hg5 mi
7:20 PM46 °FLight rain. Passing clouds.15 mph87%29.80 "Hg5 mi
6:50 PM46 °FPassing clouds.16 mph87%29.83 "HgN/A
5:50 PM46 °FLight rain. Passing clouds.16 mph82%29.83 "HgN/A
4:50 PM46 °FPartly cloudy.15 mph82%29.86 "HgN/A
Weather by CustomWeather, © 2014

See weather overviewHow to use our weather pages